Flag for Germany Weather past 2 weeks in Erding, Bavaria, Germany

Now
43 °F

Scattered clouds.


Feels Like: 33 °F
Forecast: 33 / 41 °F
Wind: 24 mph from West

Location: Munich / Franz Josef Strauss Airport

Current Time: Apr 1, 2015 at 3:28:14 PM

Latest Report: Apr 1, 2015 at 2:50 PM


Visibility: N/A

Pressure: 30.04 "Hg

Humidity: 53%

Dew point: 27 °F

Location of ErdingLocation

Historic Weather in Erding — Graph

°F

Erding temperature yesterday

Maximum temperature yesterday: 59 °F (at 11:20 AM)
Minimum temperature yesterday: 39 °F (at 12:20 AM)
Average temperature yesterday: 48 °F

Past Weeks' High & Low Weather Summary

 TemperatureHumidityPressure
High63 °F (Mar 17, 1:20 PM)100% (Mar 19, 7:50 AM)30.27 "Hg (Mar 19, 7:50 AM)
Low23 °F (Mar 20, 5:20 AM)30% (Mar 17, 3:20 PM)29.50 "Hg (Mar 30, 3:50 AM)
Average44 °F74%29.95 "Hg
* Reported Mar 17 1:20 PM — Apr 1 2:20 PM, Erding, Weather by CustomWeather, © 2015

Note: Actual official high and low records may vary slightly from our data, if they occured in-between our weather recording intervals... More about our weather records

Advertising

Erding weather history for previous 24 hours

 ConditionsComfort  
Time TempWeatherWind HumidityBarometerVisibility
2:20 PM
Wed, Apr 1
39 °FSnow flurries. Scattered clouds.24 mph65%30.04 "Hg6 mi
1:50 PM43 °FScattered clouds.24 mph49%30.04 "HgN/A
1:20 PM43 °FScattered clouds.22 mph49%30.04 "HgN/A
12:50 PM43 °FPartly sunny.24 mph53%30.04 "HgN/A
12:20 PM41 °FPartly sunny.25 mph61%30.04 "HgN/A
11:50 AM41 °FScattered clouds.29 mph66%30.04 "HgN/A
11:20 AM39 °FPartly sunny.17 mph81%30.04 "HgN/A
10:50 AM37 °FSnow showers. Broken clouds.16 mph75%30.01 "HgN/A
10:20 AM36 °FSnow flurries. Partly sunny.20 mph87%30.01 "HgN/A
9:50 AM37 °FPartly sunny.18 mph87%30.01 "HgN/A
9:20 AM36 °FBroken clouds.18 mph87%29.98 "HgN/A
8:50 AM36 °FBroken clouds.15 mph87%29.98 "HgN/A
8:20 AM36 °FBroken clouds.17 mph87%29.95 "HgN/A
7:50 AM36 °FPartly cloudy.18 mph87%29.95 "HgN/A
7:20 AM34 °FPartly cloudy.21 mph93%29.95 "HgN/A
6:50 AM34 °FPartly cloudy.22 mph93%29.92 "HgN/A
6:20 AM34 °FPartly cloudy.21 mph93%29.92 "HgN/A
5:50 AM34 °FPartly cloudy.20 mph93%29.92 "HgN/A
5:20 AM34 °FLight snow. Partly cloudy.17 mph93%29.92 "Hg4 mi
4:50 AM34 °FLight snow. Partly cloudy.15 mph93%29.92 "Hg5 mi
4:20 AM32 °FSnow showers. Low clouds.13 mph100%29.92 "Hg1 mi
3:50 AM34 °FSnow flurries. Partly cloudy.9 mph93%29.89 "Hg3 mi
3:20 AM34 °FSnow showers. Partly cloudy.16 mph93%29.92 "Hg1 mi
2:50 AM41 °FThundershowers. Partly cloudy.25 mph70%29.86 "HgN/A
2:20 AM41 °FPassing clouds.23 mph76%29.86 "HgN/A
1:50 AM39 °FPartly cloudy.25 mph81%29.86 "HgN/A
1:20 AM37 °FPassing clouds.13 mph93%29.86 "HgN/A
12:50 AM41 °FSprinkles. Partly cloudy.12 mph81%29.86 "Hg5 mi
12:20 AM41 °FPartly cloudy.16 mph81%29.86 "HgN/A
11:50 PM
Tue, Mar 31
43 °FPartly cloudy.21 mph71%29.86 "HgN/A
11:20 PM43 °FClear.23 mph71%29.86 "Hg10 mi
10:50 PM41 °FClear.20 mph76%29.86 "Hg10 mi
10:20 PM41 °FClear.21 mph81%29.86 "Hg10 mi
9:50 PM43 °FClear.22 mph71%29.83 "Hg10 mi
9:20 PM43 °FClear.23 mph71%29.83 "Hg10 mi
8:50 PM43 °FPassing clouds.24 mph71%29.83 "HgN/A
8:20 PM43 °FScattered clouds.22 mph76%29.80 "HgN/A
7:50 PM43 °FScattered clouds.23 mph76%29.80 "HgN/A
7:20 PM43 °FSprinkles. Partly sunny.32 mph81%29.77 "HgN/A
6:50 PM48 °FScattered clouds.35 mph66%29.71 "HgN/A
6:20 PM50 °FScattered clouds.25 mph67%29.68 "HgN/A
5:50 PM50 °FPassing clouds.29 mph67%29.68 "HgN/A
5:20 PM48 °FSprinkles. Broken clouds.30 mph82%29.65 "HgN/A
4:50 PM50 °FSprinkles. Broken clouds.25 mph76%29.62 "HgN/A
4:20 PM50 °FScattered showers. Broken clouds.29 mph76%29.62 "HgN/A
3:50 PM50 °FRain. Broken clouds.29 mph82%29.62 "Hg4 mi
3:20 PM50 °FSprinkles. Broken clouds.29 mph88%29.59 "HgN/A
Weather by CustomWeather, © 2015

See weather overviewHow to use our weather pages